Year,Month,Day,Hour,Minute,Value (Times are PST for temperature in C)
2009,08,24,00,00,11.80
2009,08,24,00,01,11.80
2009,08,24,00,02,11.80
2009,08,24,00,03,11.70
2009,08,24,00,04,11.70
2009,08,24,00,05,11.70
2009,08,24,00,06,11.70
2009,08,24,00,07,11.70
2009,08,24,00,08,11.70
2009,08,24,00,09,11.70
2009,08,24,00,10,11.70
2009,08,24,00,11,11.70
2009,08,24,00,12,11.60
2009,08,24,00,13,11.60
2009,08,24,00,14,11.60
2009,08,24,00,15,11.60
2009,08,24,00,16,11.60
2009,08,24,00,17,11.60
2009,08,24,00,18,11.60
2009,08,24,00,19,11.60
2009,08,24,00,20,11.60
2009,08,24,00,21,11.60
2009,08,24,00,22,11.50
2009,08,24,00,23,11.50
2009,08,24,00,24,11.50
2009,08,24,00,25,11.50
2009,08,24,00,26,11.40
2009,08,24,00,27,11.40
2009,08,24,00,28,11.40
2009,08,24,00,29,11.40
2009,08,24,00,30,11.40
2009,08,24,00,31,11.40
2009,08,24,00,32,11.40
2009,08,24,00,33,11.30
2009,08,24,00,34,11.30
2009,08,24,00,35,11.30
2009,08,24,00,36,11.30
2009,08,24,00,37,11.30
2009,08,24,00,38,11.30
2009,08,24,00,39,11.30
2009,08,24,00,40,11.30
2009,08,24,00,41,11.30
2009,08,24,00,42,11.30
2009,08,24,00,43,11.30
2009,08,24,00,44,11.30
2009,08,24,00,45,11.30
2009,08,24,00,46,11.20
2009,08,24,00,47,11.20
2009,08,24,00,48,11.20
2009,08,24,00,49,11.20
2009,08,24,00,50,11.20
2009,08,24,00,51,11.20
2009,08,24,00,52,11.20
2009,08,24,00,53,11.20
2009,08,24,00,54,11.10
2009,08,24,00,55,11.10
2009,08,24,00,56,11.10
2009,08,24,00,57,11.10
2009,08,24,00,58,11.10
2009,08,24,00,59,11.10
2009,08,24,01,00,11.10
2009,08,24,01,01,11.10
2009,08,24,01,02,11.10
2009,08,24,01,03,11.10
2009,08,24,01,04,11.00
2009,08,24,01,05,11.00
2009,08,24,01,06,11.00
2009,08,24,01,07,11.00
2009,08,24,01,08,11.00
2009,08,24,01,09,10.90
2009,08,24,01,10,10.90
2009,08,24,01,11,10.90
2009,08,24,01,12,10.90
2009,08,24,01,13,10.90
2009,08,24,01,14,10.90
2009,08,24,01,15,10.90
2009,08,24,01,16,10.90
2009,08,24,01,17,10.90
2009,08,24,01,18,10.80
2009,08,24,01,19,10.80
2009,08,24,01,20,10.80
2009,08,24,01,21,10.80
2009,08,24,01,22,10.80
2009,08,24,01,23,10.80
2009,08,24,01,24,10.80
2009,08,24,01,25,10.70
2009,08,24,01,26,10.70
2009,08,24,01,27,10.70
2009,08,24,01,28,10.70
2009,08,24,01,29,10.70
2009,08,24,01,30,10.70
2009,08,24,01,31,10.70
2009,08,24,01,32,10.70
2009,08,24,01,33,10.70
2009,08,24,01,34,10.70
2009,08,24,01,35,10.70
2009,08,24,01,36,10.70
2009,08,24,01,37,10.70
2009,08,24,01,38,10.70
2009,08,24,01,39,10.70
2009,08,24,01,40,10.60
2009,08,24,01,41,10.60
2009,08,24,01,42,10.60
2009,08,24,01,43,10.60
2009,08,24,01,44,10.60
2009,08,24,01,45,10.60
2009,08,24,01,46,10.60
2009,08,24,01,47,10.60
2009,08,24,01,48,10.60
2009,08,24,01,49,10.60
2009,08,24,01,50,10.60
2009,08,24,01,51,10.60
2009,08,24,01,52,10.60
2009,08,24,01,53,10.60
2009,08,24,01,54,10.50
2009,08,24,01,55,10.50
2009,08,24,01,56,10.50
2009,08,24,01,57,10.40
2009,08,24,01,58,10.40
2009,08,24,01,59,10.40
2009,08,24,02,00,10.40
2009,08,24,02,01,10.40
2009,08,24,02,02,10.40
2009,08,24,02,03,10.40
2009,08,24,02,04,10.40
2009,08,24,02,05,10.40
2009,08,24,02,06,10.40
2009,08,24,02,07,10.40
2009,08,24,02,08,10.40
2009,08,24,02,09,10.30
2009,08,24,02,10,10.30
2009,08,24,02,11,10.30
2009,08,24,02,12,10.30
2009,08,24,02,13,10.30
2009,08,24,02,14,10.30
2009,08,24,02,15,10.30
2009,08,24,02,16,10.30
2009,08,24,02,17,10.30
2009,08,24,02,18,10.30
2009,08,24,02,19,10.30
2009,08,24,02,20,10.30
2009,08,24,02,21,10.30
2009,08,24,02,22,10.20
2009,08,24,02,23,10.20
2009,08,24,02,24,10.20
2009,08,24,02,25,10.20
2009,08,24,02,26,10.20
2009,08,24,02,27,10.20
2009,08,24,02,28,10.20
2009,08,24,02,29,10.20
2009,08,24,02,30,10.20
2009,08,24,02,31,10.20
2009,08,24,02,32,10.20
2009,08,24,02,33,10.20
2009,08,24,02,34,10.20
2009,08,24,02,35,10.20
2009,08,24,02,36,10.10
2009,08,24,02,37,10.10
2009,08,24,02,38,10.10
2009,08,24,02,39,10.10
2009,08,24,02,40,10.10
2009,08,24,02,41,10.10
2009,08,24,02,42,10.00
2009,08,24,02,43,10.00
2009,08,24,02,44,10.00
2009,08,24,02,45,10.00
2009,08,24,02,46,10.00
2009,08,24,02,47,10.00
2009,08,24,02,48,10.00
2009,08,24,02,49,10.00
2009,08,24,02,50,10.00
2009,08,24,02,51,10.00
2009,08,24,02,52,10.00
2009,08,24,02,53,10.00
2009,08,24,02,54,10.00
2009,08,24,02,55,10.00
2009,08,24,02,56,10.00
2009,08,24,02,57,10.00
2009,08,24,02,58,10.00
2009,08,24,02,59,10.00
2009,08,24,03,00,10.00
2009,08,24,03,01,10.00
2009,08,24,03,02,10.00
2009,08,24,03,03,10.00
2009,08,24,03,04,10.00
2009,08,24,03,05,10.00
2009,08,24,03,06,10.00
2009,08,24,03,07,9.90
2009,08,24,03,08,9.90
2009,08,24,03,09,9.90
2009,08,24,03,10,9.90
2009,08,24,03,11,9.90
2009,08,24,03,12,9.90
2009,08,24,03,13,9.90
2009,08,24,03,14,9.90
2009,08,24,03,15,9.90
2009,08,24,03,16,9.90
2009,08,24,03,17,9.90
2009,08,24,03,18,9.90
2009,08,24,03,19,9.90
2009,08,24,03,20,9.90
2009,08,24,03,21,9.90
2009,08,24,03,22,9.90
2009,08,24,03,23,9.90
2009,08,24,03,24,9.90
2009,08,24,03,25,9.90
2009,08,24,03,26,9.90
2009,08,24,03,27,9.90
2009,08,24,03,28,9.90
2009,08,24,03,29,9.80
2009,08,24,03,30,9.80
2009,08,24,03,31,9.80
2009,08,24,03,32,9.80
2009,08,24,03,33,9.80
2009,08,24,03,34,9.80
2009,08,24,03,35,9.80
2009,08,24,03,36,9.70
2009,08,24,03,37,9.70
2009,08,24,03,38,9.70
2009,08,24,03,39,9.70
2009,08,24,03,40,9.60
2009,08,24,03,41,9.60
2009,08,24,03,42,9.60
2009,08,24,03,43,9.60
2009,08,24,03,44,9.50
2009,08,24,03,45,9.50
2009,08,24,03,46,9.40
2009,08,24,03,47,9.40
2009,08,24,03,48,9.40
2009,08,24,03,49,9.40
2009,08,24,03,50,9.40
2009,08,24,03,51,9.40
2009,08,24,03,52,9.40
2009,08,24,03,53,9.40
2009,08,24,03,54,9.40
2009,08,24,03,55,9.40
2009,08,24,03,56,9.40
2009,08,24,03,57,9.50
2009,08,24,03,58,9.50
2009,08,24,03,59,9.50
2009,08,24,04,00,9.50
2009,08,24,04,01,9.50
2009,08,24,04,02,9.60
2009,08,24,04,03,9.60
2009,08,24,04,04,9.60
2009,08,24,04,05,9.60
2009,08,24,04,06,9.60
2009,08,24,04,07,9.60
2009,08,24,04,08,9.60
2009,08,24,04,09,9.60
2009,08,24,04,10,9.60
2009,08,24,04,11,9.60
2009,08,24,04,12,9.70
2009,08,24,04,13,9.70
2009,08,24,04,14,9.70
2009,08,24,04,15,9.70
2009,08,24,04,16,9.70
2009,08,24,04,17,9.60
2009,08,24,04,18,9.60
2009,08,24,04,19,9.60
2009,08,24,04,20,9.60
2009,08,24,04,21,9.60
2009,08,24,04,22,9.60
2009,08,24,04,23,9.60
2009,08,24,04,24,9.60
2009,08,24,04,25,9.60
2009,08,24,04,26,9.60
2009,08,24,04,27,9.60
2009,08,24,04,28,9.60
2009,08,24,04,29,9.60
2009,08,24,04,30,9.60
2009,08,24,04,31,9.60
2009,08,24,04,32,9.60
2009,08,24,04,33,9.60
2009,08,24,04,34,9.60
2009,08,24,04,35,9.60
2009,08,24,04,36,9.50
2009,08,24,04,37,9.50
2009,08,24,04,38,9.50
2009,08,24,04,39,9.50
2009,08,24,04,40,9.50
2009,08,24,04,41,9.50
2009,08,24,04,42,9.40
2009,08,24,04,43,9.40
2009,08,24,04,44,9.40
2009,08,24,04,45,9.40
2009,08,24,04,46,9.40
2009,08,24,04,47,9.40
2009,08,24,04,48,9.30
2009,08,24,04,49,9.30
2009,08,24,04,50,9.30
2009,08,24,04,51,9.30
2009,08,24,04,52,9.30
2009,08,24,04,53,9.30
2009,08,24,04,54,9.30
2009,08,24,04,55,9.30
2009,08,24,04,56,9.30
2009,08,24,04,57,9.20
2009,08,24,04,58,9.20
2009,08,24,04,59,9.20
2009,08,24,05,00,9.20
2009,08,24,05,01,9.20
2009,08,24,05,02,9.20
2009,08,24,05,03,9.20
2009,08,24,05,04,9.20
2009,08,24,05,05,9.20
2009,08,24,05,06,9.20
2009,08,24,05,07,9.20
2009,08,24,05,08,9.20
2009,08,24,05,09,9.20
2009,08,24,05,10,9.20
2009,08,24,05,11,9.20
2009,08,24,05,12,9.10
2009,08,24,05,13,9.10
2009,08,24,05,14,9.10
2009,08,24,05,15,9.10
2009,08,24,05,16,9.10
2009,08,24,05,17,9.10
2009,08,24,05,18,9.10
2009,08,24,05,19,9.10
2009,08,24,05,20,9.10
2009,08,24,05,21,9.00
2009,08,24,05,22,9.00
2009,08,24,05,23,9.00
2009,08,24,05,24,9.00
2009,08,24,05,25,8.90
2009,08,24,05,26,8.90
2009,08,24,05,27,8.90
2009,08,24,05,28,8.90
2009,08,24,05,29,8.90
2009,08,24,05,30,8.90
2009,08,24,05,31,8.90
2009,08,24,05,32,8.90
2009,08,24,05,33,8.90
2009,08,24,05,34,8.90
2009,08,24,05,35,8.90
2009,08,24,05,36,8.90
2009,08,24,05,37,8.90
2009,08,24,05,38,8.90
2009,08,24,05,39,8.90
2009,08,24,05,40,8.90
2009,08,24,05,41,8.90
2009,08,24,05,42,8.90
2009,08,24,05,43,8.90
2009,08,24,05,44,8.90
2009,08,24,05,45,8.90
2009,08,24,05,46,8.90
2009,08,24,05,47,8.80
2009,08,24,05,48,8.80
2009,08,24,05,49,8.80
2009,08,24,05,50,8.80
2009,08,24,05,51,8.80
2009,08,24,05,52,8.80
2009,08,24,05,53,8.70
2009,08,24,05,54,8.70
2009,08,24,05,55,8.70
2009,08,24,05,56,8.80
2009,08,24,05,57,8.80
2009,08,24,05,58,8.80
2009,08,24,05,59,8.80
2009,08,24,06,00,8.80
2009,08,24,06,01,8.80
2009,08,24,06,02,8.80
2009,08,24,06,03,8.80
2009,08,24,06,04,8.80
2009,08,24,06,05,8.80
2009,08,24,06,06,8.80
2009,08,24,06,07,8.70
2009,08,24,06,08,8.70
2009,08,24,06,09,8.70
2009,08,24,06,10,8.70
2009,08,24,06,11,8.70
2009,08,24,06,12,8.70
2009,08,24,06,13,8.60
2009,08,24,06,14,8.60
2009,08,24,06,15,8.60
2009,08,24,06,16,8.60
2009,08,24,06,17,8.60
2009,08,24,06,18,8.50
2009,08,24,06,19,8.50
2009,08,24,06,20,8.50
2009,08,24,06,21,8.50
2009,08,24,06,22,8.40
2009,08,24,06,23,8.40
2009,08,24,06,24,8.40
2009,08,24,06,25,8.40
2009,08,24,06,26,8.40
2009,08,24,06,27,8.40
2009,08,24,06,28,8.40
2009,08,24,06,29,8.40
2009,08,24,06,30,8.50
2009,08,24,06,31,8.50
2009,08,24,06,32,8.50
2009,08,24,06,33,8.60
2009,08,24,06,34,8.60
2009,08,24,06,35,8.60
2009,08,24,06,36,8.60
2009,08,24,06,37,8.60
2009,08,24,06,38,8.60
2009,08,24,06,39,8.60
2009,08,24,06,40,8.60
2009,08,24,06,41,8.60
2009,08,24,06,42,8.60
2009,08,24,06,43,8.70
2009,08,24,06,44,8.70
2009,08,24,06,45,8.70
2009,08,24,06,46,8.70
2009,08,24,06,47,8.70
2009,08,24,06,48,8.70
2009,08,24,06,49,8.70
2009,08,24,06,50,8.70
2009,08,24,06,51,8.70
2009,08,24,06,52,8.70
2009,08,24,06,53,8.70
2009,08,24,06,54,8.80
2009,08,24,06,55,8.80
2009,08,24,06,56,8.80
2009,08,24,06,57,8.80
2009,08,24,06,58,8.90
2009,08,24,06,59,8.90
2009,08,24,07,00,9.00
2009,08,24,07,01,9.10
2009,08,24,07,02,9.10
2009,08,24,07,03,9.20
2009,08,24,07,04,9.30
2009,08,24,07,05,9.30
2009,08,24,07,06,9.30
2009,08,24,07,07,9.30
2009,08,24,07,08,9.30
2009,08,24,07,09,9.40
2009,08,24,07,10,9.40
2009,08,24,07,11,9.50
2009,08,24,07,12,9.50
2009,08,24,07,13,9.60
2009,08,24,07,14,9.70
2009,08,24,07,15,9.80
2009,08,24,07,16,9.80
2009,08,24,07,17,9.90
2009,08,24,07,18,10.00
2009,08,24,07,19,10.10
2009,08,24,07,20,10.30
2009,08,24,07,21,10.40
2009,08,24,07,22,10.50
2009,08,24,07,23,10.50
2009,08,24,07,24,10.60
2009,08,24,07,25,10.70
2009,08,24,07,26,10.70
2009,08,24,07,27,10.80
2009,08,24,07,28,10.80
2009,08,24,07,29,10.90
2009,08,24,07,30,11.00
2009,08,24,07,31,11.10
2009,08,24,07,32,11.20
2009,08,24,07,33,11.20
2009,08,24,07,34,11.30
2009,08,24,07,35,11.40
2009,08,24,07,36,11.50
2009,08,24,07,37,11.60
2009,08,24,07,38,11.70
2009,08,24,07,39,11.80
2009,08,24,07,40,11.90
2009,08,24,07,41,12.00
2009,08,24,07,42,12.20
2009,08,24,07,43,12.30
2009,08,24,07,44,12.40
2009,08,24,07,45,12.50
2009,08,24,07,46,12.60
2009,08,24,07,47,12.70
2009,08,24,07,48,12.70
2009,08,24,07,49,12.80
2009,08,24,07,50,12.80
2009,08,24,07,51,12.90
2009,08,24,07,52,13.00
2009,08,24,07,53,13.00
2009,08,24,07,54,13.10
2009,08,24,07,55,13.10
2009,08,24,07,56,13.20
2009,08,24,07,57,13.20
2009,08,24,07,58,13.30
2009,08,24,07,59,13.30
2009,08,24,08,00,13.40
2009,08,24,08,01,13.50
2009,08,24,08,02,13.60
2009,08,24,08,03,13.70
2009,08,24,08,04,13.80
2009,08,24,08,05,13.90
2009,08,24,08,06,14.00
2009,08,24,08,07,14.00
2009,08,24,08,08,14.10
2009,08,24,08,09,14.10
2009,08,24,08,10,14.20
2009,08,24,08,11,14.20
2009,08,24,08,12,14.20
2009,08,24,08,13,14.30
2009,08,24,08,14,14.30
2009,08,24,08,15,14.40
2009,08,24,08,16,14.50
2009,08,24,08,17,14.60
2009,08,24,08,18,14.60
2009,08,24,08,19,14.70
2009,08,24,08,20,14.70
2009,08,24,08,21,14.70
2009,08,24,08,22,14.80
2009,08,24,08,23,14.80
2009,08,24,08,24,14.80
2009,08,24,08,25,14.80
2009,08,24,08,26,14.80
2009,08,24,08,27,14.80
2009,08,24,08,28,14.80
2009,08,24,08,29,14.80
2009,08,24,08,30,14.80
2009,08,24,08,31,14.80
2009,08,24,08,32,14.90
2009,08,24,08,33,14.90
2009,08,24,08,34,14.90
2009,08,24,08,35,15.00
2009,08,24,08,36,15.10
2009,08,24,08,37,15.20
2009,08,24,08,38,15.40
2009,08,24,08,39,15.40
2009,08,24,08,40,15.50
2009,08,24,08,41,15.60
2009,08,24,08,42,15.60
2009,08,24,08,43,15.60
2009,08,24,08,44,15.60
2009,08,24,08,45,15.60
2009,08,24,08,46,15.60
2009,08,24,08,47,15.60
2009,08,24,08,48,15.60
2009,08,24,08,49,15.70
2009,08,24,08,50,15.70
2009,08,24,08,51,15.70
2009,08,24,08,52,15.60
2009,08,24,08,53,15.60
2009,08,24,08,54,15.50
2009,08,24,08,55,15.50
2009,08,24,08,56,15.50
2009,08,24,08,57,15.40
2009,08,24,08,58,15.50
2009,08,24,08,59,15.50
2009,08,24,09,00,15.60
2009,08,24,09,01,15.70
2009,08,24,09,02,15.70
2009,08,24,09,03,15.70
2009,08,24,09,04,15.70
2009,08,24,09,05,15.70
2009,08,24,09,06,15.70
2009,08,24,09,07,15.70
2009,08,24,09,08,15.70
2009,08,24,09,09,15.80
2009,08,24,09,10,15.80
2009,08,24,09,11,15.80
2009,08,24,09,12,15.90
2009,08,24,09,13,16.00
2009,08,24,09,14,16.00
2009,08,24,09,15,16.10
2009,08,24,09,16,16.10
2009,08,24,09,17,16.10
2009,08,24,09,18,16.10
2009,08,24,09,19,16.10
2009,08,24,09,20,16.10
2009,08,24,09,21,16.20
2009,08,24,09,22,16.30
2009,08,24,09,23,16.30
2009,08,24,09,24,16.40
2009,08,24,09,25,16.40
2009,08,24,09,26,16.40
2009,08,24,09,27,16.40
2009,08,24,09,28,16.40
2009,08,24,09,29,16.30
2009,08,24,09,30,16.30
2009,08,24,09,31,16.30
2009,08,24,09,32,16.30
2009,08,24,09,33,16.30
2009,08,24,09,34,16.30
2009,08,24,09,35,16.40
2009,08,24,09,36,16.40
2009,08,24,09,37,16.50
2009,08,24,09,38,16.60
2009,08,24,09,39,16.70
2009,08,24,09,40,16.80
2009,08,24,09,41,16.80
2009,08,24,09,42,16.80
2009,08,24,09,43,16.80
2009,08,24,09,44,16.80
2009,08,24,09,45,16.90
2009,08,24,09,46,16.90
2009,08,24,09,47,16.90
2009,08,24,09,48,16.90
2009,08,24,09,49,16.90
2009,08,24,09,50,16.90
2009,08,24,09,51,16.90
2009,08,24,09,52,16.90
2009,08,24,09,53,17.00
2009,08,24,09,54,17.10
2009,08,24,09,55,17.20
2009,08,24,09,56,17.30
2009,08,24,09,57,17.40
2009,08,24,09,58,17.50
2009,08,24,09,59,17.60
2009,08,24,10,00,17.60
2009,08,24,10,01,17.60
2009,08,24,10,02,17.60
2009,08,24,10,03,17.60
2009,08,24,10,04,17.60
2009,08,24,10,05,17.60
2009,08,24,10,06,17.60
2009,08,24,10,07,17.50
2009,08,24,10,08,17.40
2009,08,24,10,09,17.40
2009,08,24,10,10,17.40
2009,08,24,10,11,17.50
2009,08,24,10,12,17.50
2009,08,24,10,13,17.60
2009,08,24,10,14,17.60
2009,08,24,10,15,17.60
2009,08,24,10,16,17.60
2009,08,24,10,17,17.60
2009,08,24,10,18,17.60
2009,08,24,10,19,17.70
2009,08,24,10,20,17.70
2009,08,24,10,21,17.70
2009,08,24,10,22,17.80
2009,08,24,10,23,17.80
2009,08,24,10,24,17.80
2009,08,24,10,25,17.80
2009,08,24,10,26,17.80
2009,08,24,10,27,17.80
2009,08,24,10,28,17.80
2009,08,24,10,29,17.80
2009,08,24,10,30,17.80
2009,08,24,10,31,17.70
2009,08,24,10,32,17.80
2009,08,24,10,33,17.80
2009,08,24,10,34,17.80
2009,08,24,10,35,17.70
2009,08,24,10,36,17.70
2009,08,24,10,37,17.70
2009,08,24,10,38,17.60
2009,08,24,10,39,17.60
2009,08,24,10,40,17.70
2009,08,24,10,41,17.70
2009,08,24,10,42,17.70
2009,08,24,10,43,17.80
2009,08,24,10,44,17.90
2009,08,24,10,45,18.00
2009,08,24,10,46,18.10
2009,08,24,10,47,18.20
2009,08,24,10,48,18.10
2009,08,24,10,49,18.10
2009,08,24,10,50,18.10
2009,08,24,10,51,18.10
2009,08,24,10,52,18.10
2009,08,24,10,53,18.10
2009,08,24,10,54,18.20
2009,08,24,10,55,18.20
2009,08,24,10,56,18.20
2009,08,24,10,57,18.20
2009,08,24,10,58,18.10
2009,08,24,10,59,18.00
2009,08,24,11,00,18.00
2009,08,24,11,01,17.90
2009,08,24,11,02,17.90
2009,08,24,11,03,17.80
2009,08,24,11,04,17.80
2009,08,24,11,05,17.80
2009,08,24,11,06,17.80
2009,08,24,11,07,17.70
2009,08,24,11,08,17.70
2009,08,24,11,09,17.70
2009,08,24,11,10,17.60
2009,08,24,11,11,17.60
2009,08,24,11,12,17.60
2009,08,24,11,13,17.60
2009,08,24,11,14,17.70
2009,08,24,11,15,17.80
2009,08,24,11,16,17.90
2009,08,24,11,17,18.00
2009,08,24,11,18,18.00
2009,08,24,11,19,18.00
2009,08,24,11,20,18.00
2009,08,24,11,21,18.00
2009,08,24,11,22,18.10
2009,08,24,11,23,18.20
2009,08,24,11,24,18.30
2009,08,24,11,25,18.40
2009,08,24,11,26,18.40
2009,08,24,11,27,18.50
2009,08,24,11,28,18.60
2009,08,24,11,29,18.60
2009,08,24,11,30,18.60
2009,08,24,11,31,18.60
2009,08,24,11,32,18.50
2009,08,24,11,33,18.40
2009,08,24,11,34,18.30
2009,08,24,11,35,18.30
2009,08,24,11,36,18.30
2009,08,24,11,37,18.30
2009,08,24,11,38,18.30
2009,08,24,11,39,18.30
2009,08,24,11,40,18.30
2009,08,24,11,41,18.30
2009,08,24,11,42,18.30
2009,08,24,11,43,18.20
2009,08,24,11,44,18.30
2009,08,24,11,45,18.30
2009,08,24,11,46,18.20
2009,08,24,11,47,18.20
2009,08,24,11,48,18.30
2009,08,24,11,49,18.30
2009,08,24,11,50,18.40
2009,08,24,11,51,18.40
2009,08,24,11,52,18.50
2009,08,24,11,53,18.60
2009,08,24,11,54,18.70
2009,08,24,11,55,18.80
2009,08,24,11,56,18.80
2009,08,24,11,57,18.80
2009,08,24,11,58,18.90
2009,08,24,11,59,18.90
2009,08,24,12,00,19.00
2009,08,24,12,01,19.10
2009,08,24,12,02,19.10
2009,08,24,12,03,19.10
2009,08,24,12,04,19.10
2009,08,24,12,05,19.20
2009,08,24,12,06,19.30
2009,08,24,12,07,19.30
2009,08,24,12,08,19.40
2009,08,24,12,09,19.40
2009,08,24,12,10,19.40
2009,08,24,12,11,19.40
2009,08,24,12,12,19.30
2009,08,24,12,13,19.20
2009,08,24,12,14,19.20
2009,08,24,12,15,19.20
2009,08,24,12,16,19.30
2009,08,24,12,17,19.30
2009,08,24,12,18,19.30
2009,08,24,12,19,19.30
2009,08,24,12,20,19.30
2009,08,24,12,21,19.30
2009,08,24,12,22,19.40
2009,08,24,12,23,19.40
2009,08,24,12,24,19.40
2009,08,24,12,25,19.40
2009,08,24,12,26,19.30
2009,08,24,12,27,19.30
2009,08,24,12,28,19.30
2009,08,24,12,29,19.30
2009,08,24,12,30,19.20
2009,08,24,12,31,19.20
2009,08,24,12,32,19.20
2009,08,24,12,33,19.20
2009,08,24,12,34,19.20
2009,08,24,12,35,19.10
2009,08,24,12,36,19.10
2009,08,24,12,37,19.20
2009,08,24,12,38,19.30
2009,08,24,12,39,19.30
2009,08,24,12,40,19.30
2009,08,24,12,41,19.30
2009,08,24,12,42,19.20
2009,08,24,12,43,19.20
2009,08,24,12,44,19.20
2009,08,24,12,45,19.20
2009,08,24,12,46,19.20
2009,08,24,12,47,19.10
2009,08,24,12,48,19.10
2009,08,24,12,49,19.10
2009,08,24,12,50,19.10
2009,08,24,12,51,19.10
2009,08,24,12,52,19.00
2009,08,24,12,53,19.00
2009,08,24,12,54,18.90
2009,08,24,12,55,18.80
2009,08,24,12,56,18.70
2009,08,24,12,57,18.60
2009,08,24,12,58,18.50
2009,08,24,12,59,18.40
2009,08,24,13,00,18.40
2009,08,24,13,01,18.40
2009,08,24,13,02,18.50
2009,08,24,13,03,18.60
2009,08,24,13,04,18.70
2009,08,24,13,05,18.80
2009,08,24,13,06,18.90
2009,08,24,13,07,18.80
2009,08,24,13,08,18.70
2009,08,24,13,09,18.60
2009,08,24,13,10,18.50
2009,08,24,13,11,18.50
2009,08,24,13,12,18.50
2009,08,24,13,13,18.50
2009,08,24,13,14,18.60
2009,08,24,13,15,18.60
2009,08,24,13,16,18.60
2009,08,24,13,17,18.70
2009,08,24,13,18,18.70
2009,08,24,13,19,18.80
2009,08,24,13,20,18.80
2009,08,24,13,21,18.80
2009,08,24,13,22,18.70
2009,08,24,13,23,18.70
2009,08,24,13,24,18.80
2009,08,24,13,25,18.70
2009,08,24,13,26,18.80
2009,08,24,13,27,18.80
2009,08,24,13,28,18.80
2009,08,24,13,29,18.90
2009,08,24,13,30,19.00
2009,08,24,13,31,19.10
2009,08,24,13,32,19.10
2009,08,24,13,33,19.10
2009,08,24,13,34,19.00
2009,08,24,13,35,18.90
2009,08,24,13,36,18.90
2009,08,24,13,37,18.90
2009,08,24,13,38,18.90
2009,08,24,13,39,18.80
2009,08,24,13,40,18.70
2009,08,24,13,41,18.70
2009,08,24,13,42,18.70
2009,08,24,13,43,18.70
2009,08,24,13,44,18.70
2009,08,24,13,45,18.70
2009,08,24,13,46,18.80
2009,08,24,13,47,18.80
2009,08,24,13,48,18.70
2009,08,24,13,49,18.70
2009,08,24,13,50,18.70
2009,08,24,13,51,18.70
2009,08,24,13,52,18.70
2009,08,24,13,53,18.60
2009,08,24,13,54,18.60
2009,08,24,13,55,18.60
2009,08,24,13,56,18.60
2009,08,24,13,57,18.70
2009,08,24,13,58,18.60
2009,08,24,13,59,18.60
2009,08,24,14,00,18.60
2009,08,24,14,01,18.70
2009,08,24,14,02,18.70
2009,08,24,14,03,18.70
2009,08,24,14,04,18.80
2009,08,24,14,05,18.80
2009,08,24,14,06,18.80
2009,08,24,14,07,18.80
2009,08,24,14,08,18.80
2009,08,24,14,09,18.80
2009,08,24,14,10,18.80
2009,08,24,14,11,18.70
2009,08,24,14,12,18.70
2009,08,24,14,13,18.80
2009,08,24,14,14,18.80
2009,08,24,14,15,18.80
2009,08,24,14,16,18.80
2009,08,24,14,17,18.80
2009,08,24,14,18,18.90
2009,08,24,14,19,19.00
2009,08,24,14,20,19.00
2009,08,24,14,21,19.10
2009,08,24,14,22,19.20
2009,08,24,14,23,19.20
2009,08,24,14,24,19.30
2009,08,24,14,25,19.30
2009,08,24,14,26,19.30
2009,08,24,14,27,19.40
2009,08,24,14,28,19.40
2009,08,24,14,29,19.50
2009,08,24,14,30,19.50
2009,08,24,14,31,19.50
2009,08,24,14,32,19.50
2009,08,24,14,33,19.50
2009,08,24,14,34,19.50
2009,08,24,14,35,19.50
2009,08,24,14,36,19.50
2009,08,24,14,37,19.60
2009,08,24,14,38,19.70
2009,08,24,14,39,19.80
2009,08,24,14,40,19.90
2009,08,24,14,41,19.90
2009,08,24,14,42,20.10
2009,08,24,14,43,20.20
2009,08,24,14,44,20.30
2009,08,24,14,45,20.30
2009,08,24,14,46,20.30
2009,08,24,14,47,20.30
2009,08,24,14,48,20.30
2009,08,24,14,49,20.30
2009,08,24,14,50,20.40
2009,08,24,14,51,20.40
2009,08,24,14,52,20.40
2009,08,24,14,53,20.30
2009,08,24,14,54,20.30
2009,08,24,14,55,20.30
2009,08,24,14,56,20.30
2009,08,24,14,57,20.30
2009,08,24,14,58,20.20
2009,08,24,14,59,20.20
2009,08,24,15,00,20.20
2009,08,24,15,01,20.10
2009,08,24,15,02,20.10
2009,08,24,15,03,20.00
2009,08,24,15,04,19.90
2009,08,24,15,05,19.80
2009,08,24,15,06,19.80
2009,08,24,15,07,19.90
2009,08,24,15,08,20.00
2009,08,24,15,09,20.10
2009,08,24,15,10,20.20
2009,08,24,15,11,20.20
2009,08,24,15,12,20.20
2009,08,24,15,13,20.30
2009,08,24,15,14,20.30
2009,08,24,15,15,20.30
2009,08,24,15,16,20.30
2009,08,24,15,17,20.40
2009,08,24,15,18,20.40
2009,08,24,15,19,20.40
2009,08,24,15,20,20.30
2009,08,24,15,21,20.10
2009,08,24,15,22,20.00
2009,08,24,15,23,19.90
2009,08,24,15,24,19.80
2009,08,24,15,25,19.90
2009,08,24,15,26,19.90
2009,08,24,15,27,19.90
2009,08,24,15,28,19.90
2009,08,24,15,29,19.80
2009,08,24,15,30,19.70
2009,08,24,15,31,19.60
2009,08,24,15,32,19.60
2009,08,24,15,33,19.60
2009,08,24,15,34,19.60
2009,08,24,15,35,19.50
2009,08,24,15,36,19.40
2009,08,24,15,37,19.30
2009,08,24,15,38,19.30
2009,08,24,15,39,19.30
2009,08,24,15,40,19.30
2009,08,24,15,41,19.30
2009,08,24,15,42,19.30
2009,08,24,15,43,19.40
2009,08,24,15,44,19.40
2009,08,24,15,45,19.50
2009,08,24,15,46,19.50
2009,08,24,15,47,19.50
2009,08,24,15,48,19.50
2009,08,24,15,49,19.50
2009,08,24,15,50,19.40
2009,08,24,15,51,19.40
2009,08,24,15,52,19.40
2009,08,24,15,53,19.40
2009,08,24,15,54,19.40
2009,08,24,15,55,19.50
2009,08,24,15,56,19.60
2009,08,24,15,57,19.70
2009,08,24,15,58,19.70
2009,08,24,15,59,19.80
2009,08,24,16,00,19.80
2009,08,24,16,01,19.80
2009,08,24,16,02,19.90
2009,08,24,16,03,19.90
2009,08,24,16,04,19.90
2009,08,24,16,05,19.90
2009,08,24,16,06,19.90
2009,08,24,16,07,19.80
2009,08,24,16,08,19.80
2009,08,24,16,09,19.70
2009,08,24,16,10,19.70
2009,08,24,16,11,19.70
2009,08,24,16,12,19.70
2009,08,24,16,13,19.70
2009,08,24,16,14,19.70
2009,08,24,16,15,19.70
2009,08,24,16,16,19.70
2009,08,24,16,17,19.70
2009,08,24,16,18,19.70
2009,08,24,16,19,19.70
2009,08,24,16,20,19.80
2009,08,24,16,21,19.80
2009,08,24,16,22,19.80
2009,08,24,16,23,19.80
2009,08,24,16,24,19.80
2009,08,24,16,25,19.80
2009,08,24,16,26,19.80
2009,08,24,16,27,19.80
2009,08,24,16,28,19.80
2009,08,24,16,29,19.80
2009,08,24,16,30,19.80
2009,08,24,16,31,19.80
2009,08,24,16,32,19.80
2009,08,24,16,33,19.80
2009,08,24,16,34,19.90
2009,08,24,16,35,20.00
2009,08,24,16,36,20.10
2009,08,24,16,37,20.20
2009,08,24,16,38,20.20
2009,08,24,16,39,20.20
2009,08,24,16,40,20.20
2009,08,24,16,41,20.10
2009,08,24,16,42,20.00
2009,08,24,16,43,20.00
2009,08,24,16,44,19.90
2009,08,24,16,45,19.90
2009,08,24,16,46,19.90
2009,08,24,16,47,19.90
2009,08,24,16,48,19.90
2009,08,24,16,49,19.90
2009,08,24,16,50,19.90
2009,08,24,16,51,19.80
2009,08,24,16,52,19.80
2009,08,24,16,53,19.80
2009,08,24,16,54,19.80
2009,08,24,16,55,19.90
2009,08,24,16,56,19.90
2009,08,24,16,57,19.90
2009,08,24,16,58,20.00
2009,08,24,16,59,20.00
2009,08,24,17,00,20.10
2009,08,24,17,01,20.10
2009,08,24,17,02,20.20
2009,08,24,17,03,20.30
2009,08,24,17,04,20.20
2009,08,24,17,05,20.30
2009,08,24,17,06,20.30
2009,08,24,17,07,20.30
2009,08,24,17,08,20.30
2009,08,24,17,09,20.30
2009,08,24,17,10,20.30
2009,08,24,17,11,20.30
2009,08,24,17,12,20.30
2009,08,24,17,13,20.30
2009,08,24,17,14,20.30
2009,08,24,17,15,20.30
2009,08,24,17,16,20.30
2009,08,24,17,17,20.30
2009,08,24,17,18,20.20
2009,08,24,17,19,20.20
2009,08,24,17,20,20.20
2009,08,24,17,21,20.20
2009,08,24,17,22,20.20
2009,08,24,17,23,20.20
2009,08,24,17,24,20.20
2009,08,24,17,25,20.20
2009,08,24,17,26,20.10
2009,08,24,17,27,20.20
2009,08,24,17,28,20.20
2009,08,24,17,29,20.20
2009,08,24,17,30,20.30